[[{"header":{"parameterUnit":"m.s-1","parameterCategory":1,"la1":30.2991,"la2":30.254,"lo1":-89.0895,"lo2":-89.0444,"dy":0.0017,"dx":0.0017,"nx":28,"ny":28,"refTime":"2023-10-27T21:00:00:Z","depth":0,"parameterNumber":2,"parameterNumberName":"U-component_of_WINDS"},"data":[0,0,0,0,0,0,0,0,0,0,0,0,0,0,0,0,0,0,0,0,0,0,0,0,0,0,0,0,0,0,0,0,0,0,0,0,0,0,0,0,0,0,0,0,0,0,0,0,0,0,0,0,0,0,0,0,0,0,-2.7174,-2.7174,0,-2.7152,-2.7152,-2.7151,-2.705,-2.7048,-2.7046,-2.7043,-2.7021,-2.7023,-2.7024,0,0,0,0,0,0,0,0,0,0,0,0,0,-2.7131,-2.7132,-2.7174,-2.7174,-2.7174,-2.7152,-2.7152,-2.7151,-2.7051,-2.7048,-2.7045,-2.7042,-2.702,-2.7022,-2.7024,0,0,0,0,0,0,0,0,0,0,0,0,0,-2.7133,-2.7133,-2.7174,-2.7121,-2.7116,-2.7152,-2.7151,-2.7151,-2.7051,-2.7048,-2.7044,-2.7041,-2.702,-2.7022,-2.7025,-2.711,0,0,-2.7032,-2.7033,0,0,0,0,0,0,0,0,-2.7133,-2.7135,-2.7129,-2.7124,-2.7119,-2.71,-2.7128,-2.7138,-2.7052,-2.7076,-2.7043,-2.7039,-2.705,-2.705,-2.7054,-2.7109,-2.7108,-2.7032,-2.7034,-2.7035,-2.7035,0,0,0,0,0,0,0,-2.7133,-2.7135,-2.7165,-2.7129,-2.7123,-2.7098,-2.7095,-2.7129,-2.7083,-2.7073,-2.7066,-2.7065,-2.7047,-2.7051,-2.7052,-2.7108,-2.7032,-2.7034,-2.7036,-2.7037,-2.7234,-2.7238,0,0,0,0,0,0,-2.714,-2.7136,-2.7166,-2.7164,-2.7118,-2.7102,-2.7098,-2.711,-2.7083,-2.7075,-2.7068,-2.706,-2.7049,-2.705,-2.7051,-2.715,-2.7035,-2.7037,-2.7038,-2.723,-2.7235,-2.7239,0,0,0,0,0,0,-2.714,-2.7144,-2.7167,-2.7148,-2.7149,-2.7107,-2.7121,-2.7111,-2.7116,-2.7078,-2.707,-2.7081,-2.7046,-2.7048,-2.7097,-2.7147,-2.7038,-2.704,-2.7226,-2.7232,-2.7237,-2.7348,0,0,0,0,0,0,-2.7139,-2.7144,-2.7176,-2.715,-2.7151,-2.7212,-2.7124,-2.7113,-2.712,-2.711,-2.7088,-2.7081,-2.7044,-2.7094,-2.7099,-2.7149,-2.7042,-2.7221,-2.7228,-2.7235,-2.734,-2.7357,-2.7372,0,0,0,0,0,-2.7138,-2.7208,-2.7178,-2.7182,-2.7189,-2.7216,-2.7216,-2.7171,-2.7125,-2.7156,-2.7133,-2.7082,-2.7142,-2.7099,-2.7105,-2.7156,-2.7218,-2.7226,-2.7235,-2.7332,-2.7353,-2.7371,0,0,0,0,0,0,-2.7241,-2.7204,-2.717,-2.7234,-2.7229,-2.7198,-2.7237,-2.7195,-2.7203,-2.7193,-2.7137,-2.7133,-2.719,-2.7178,-2.7132,-2.7238,-2.7171,-2.7181,-2.7244,-2.7263,-2.7279,-2.728,-2.7044,0,0,0,0,0,-2.7272,-2.7296,-2.7262,-2.7322,-2.7321,-2.728,-2.729,-2.7256,-2.7248,-2.7245,-2.7225,-2.722,-2.7237,-2.725,-2.7264,-2.7338,-2.7332,-2.7376,-2.7392,-2.7406,-2.7414,-2.7453,-2.7472,-2.7267,-2.7267,-2.7267,0,0,-2.7334,-2.7317,-2.7335,-2.7342,-2.7334,-2.7361,-2.7278,-2.731,-2.7329,-2.725,-2.7294,-2.728,-2.7271,-2.7333,-2.7359,-2.7324,-2.747,-2.7416,-2.7427,-2.7429,-2.7464,-2.7483,-2.7501,-2.7273,-2.7272,-2.7271,0,0,-2.7462,-2.7451,-2.75,-2.7494,-2.7483,-2.7456,-2.7468,-2.7444,-2.7432,-2.7476,-2.7417,-2.744,-2.7471,-2.7467,-2.7469,-2.7598,-2.7551,-2.7604,-2.7687,-2.7725,-2.7741,-2.7755,-2.7801,-2.7818,-2.7613,-2.7614,-2.7614,0,-2.7541,-2.7578,-2.753,-2.7566,-2.7571,-2.7501,-2.755,-2.7547,-2.7542,-2.7547,-2.7508,-2.7547,-2.7535,-2.7596,-2.7627,-2.7631,-2.7643,-2.7605,-2.7743,-2.7757,-2.7769,-2.7812,-2.7829,-2.762,-2.7619,-2.7619,-2.7618,0,-2.7676,-2.7703,-2.7744,-2.7741,-2.775,-2.7793,-2.7751,-2.7767,-2.7733,-2.771,-2.7757,-2.7741,-2.7751,-2.7764,-2.773,-2.782,-2.7798,-2.7753,-2.7684,-2.7796,-2.7835,-2.7851,-2.7629,-2.7627,-2.7625,-2.7623,0,0,-2.7865,-2.7837,-2.7852,-2.785,-2.7834,-2.7855,-2.7895,-2.7905,-2.7919,-2.7919,-2.795,-2.798,-2.7937,-2.794,-2.7906,-2.794,-2.8043,-2.789,-2.7889,-2.7918,-2.814,-2.8174,-2.8194,-2.8013,-2.8016,-2.8019,-2.8141,0,-2.7986,-2.8052,-2.8011,-2.8083,-2.8108,-2.8044,-2.8078,-2.8073,-2.8053,-2.8072,-2.805,-2.8071,-2.8014,-2.8015,-2.8046,-2.8024,-2.8087,-2.8015,-2.8042,-2.8044,-2.8045,-2.8214,-2.8249,-2.8365,-2.8156,-2.8158,-2.816,0,-2.8135,-2.8142,-2.8217,-2.8197,-2.8206,-2.8238,-2.8244,-2.8263,-2.8256,-2.8239,-2.8244,-2.8202,-2.824,-2.8174,-2.8226,-2.8178,-2.8187,-2.8178,-2.8182,-2.8181,-2.8108,-2.8217,-2.8401,-2.8418,-2.8184,-2.8182,-2.818,0,-2.8265,-2.8293,-2.8341,-2.8342,-2.832,-2.8344,-2.8336,-2.8326,-2.8335,-2.8341,-2.8346,-2.8357,-2.8363,-2.8373,-2.8335,-2.8291,-2.8392,-2.8323,-2.8379,-2.8381,-2.8402,-2.8401,-2.8589,-2.8411,-2.8411,-2.841,-2.841,0,-2.8403,-2.8451,-2.8399,-2.8429,-2.8481,-2.8435,-2.8488,-2.8473,-2.8465,-2.8491,-2.8437,-2.8463,-2.8412,-2.8433,-2.8405,-2.8452,-2.8455,-2.8443,-2.8435,-2.8447,-2.8449,-2.8451,-2.8441,-2.8415,-2.8414,-2.8413,-2.8412,0,-2.8556,-2.8523,-2.8571,-2.8548,-2.8543,-2.8583,-2.8563,-2.859,-2.8567,-2.8601,-2.8606,-2.8571,-2.8593,-2.8558,-2.8575,-2.8556,-2.8622,-2.8602,-2.8624,-2.8618,-2.8676,-2.8671,-2.8871,-2.8895,-2.8703,-2.8705,-2.8706,0,-2.8645,-2.8681,-2.8662,-2.8676,-2.8671,-2.8694,-2.8703,-2.866,-2.8672,-2.8668,-2.8695,-2.8713,-2.8724,-2.8763,-2.8739,-2.8752,-2.8731,-2.8801,-2.8733,-2.8744,-2.8731,-2.8729,-2.8732,-2.8814,-2.8816,-2.8818,-2.882,0,-2.8808,-2.879,-2.8805,-2.8816,-2.8829,-2.8835,-2.8837,-2.8852,-2.8806,-2.8822,-2.8844,-2.8854,-2.8872,-2.889,-2.8898,-2.8891,-2.8848,-2.8842,-2.8855,-2.8868,-2.8879,-2.8873,-2.8661,-2.8837,-2.8835,-2.8834,-2.8833,-2.8832,-2.893,-2.8959,-2.8951,-2.897,-2.8968,-2.8972,-2.8996,-2.8977,-2.8995,-2.9006,-2.898,-2.9009,-2.9002,-2.9009,-2.9006,-2.9028,-2.8998,-2.9017,-2.9022,-2.9027,-2.9036,-2.8877,-2.903,-2.9029,-2.9029,-2.9028,-2.9028,0,-2.9089,-2.9081,-2.91,-2.9105,-2.9121,-2.908,-2.9081,-2.9097,-2.9123,-2.9121,-2.9134,-2.916,-2.9178,-2.9156,-2.917,-2.9192,-2.9173,-2.9197,-2.9194,-2.9193,-2.9063,-2.905,-2.9213,-2.9213,-2.9213,-2.9212,-2.9212,-2.9212,-2.9173,-2.922,-2.9202,-2.9248,-2.9239,-2.9267,-2.9271,-2.9275,-2.9273,-2.9304,-2.9319,-2.9305,-2.9296,-2.9309,-2.9324,-2.9317,-2.9324,-2.9356,-2.9342,-2.9221,-2.9202,-2.9185,-2.9172,-2.9358,-2.9358,-2.947,-2.9471,-2.9472]},{"header":{"parameterUnit":"m.s-1","parameterCategory":1,"la1":30.2991,"la2":30.254,"lo1":-89.0895,"lo2":-89.0444,"dy":0.0017,"dx":0.0017,"nx":28,"ny":28,"refTime":"2023-10-27T21:00:00:Z","depth":0,"parameterNumber":3,"parameterNumberName":"V-component_of_WINDS"},"data":[0,0,0,0,0,0,0,0,0,0,0,0,0,0,0,0,0,0,0,0,0,0,0,0,0,0,0,0,0,0,0,0,0,0,0,0,0,0,0,0,0,0,0,0,0,0,0,0,0,0,0,0,0,0,0,0,0,0,1.3503,1.3503,0,1.3524,1.3524,1.3524,1.3491,1.349,1.3489,1.3488,1.3506,1.3507,1.3509,0,0,0,0,0,0,0,0,0,0,0,0,0,1.3431,1.3432,1.3502,1.3503,1.3503,1.3524,1.3524,1.3524,1.3492,1.349,1.3489,1.3488,1.3505,1.3507,1.3509,0,0,0,0,0,0,0,0,0,0,0,0,0,1.3458,1.3433,1.3502,1.3489,1.3488,1.3524,1.3524,1.3524,1.3492,1.349,1.3489,1.3487,1.3505,1.3507,1.3509,1.3557,0,0,1.3516,1.3517,0,0,0,0,0,0,0,0,1.3457,1.3461,1.3491,1.349,1.3489,1.3503,1.3505,1.3535,1.3492,1.349,1.3488,1.3486,1.3506,1.3508,1.3516,1.3558,1.3558,1.3516,1.3518,1.3519,1.3519,0,0,0,0,0,0,0,1.3455,1.346,1.3511,1.3491,1.349,1.3482,1.3484,1.3511,1.3507,1.349,1.3488,1.3491,1.3505,1.3513,1.3516,1.3559,1.3516,1.3518,1.352,1.352,1.3644,1.3646,0,0,0,0,0,0,1.3455,1.3458,1.351,1.3511,1.3469,1.3484,1.3486,1.35,1.3507,1.3506,1.3493,1.349,1.351,1.3513,1.3516,1.3575,1.3518,1.3521,1.3522,1.3642,1.3644,1.3647,0,0,0,0,0,0,1.3453,1.346,1.3509,1.3484,1.349,1.3487,1.3503,1.3502,1.351,1.3509,1.3508,1.3502,1.3509,1.3513,1.3548,1.3575,1.3522,1.3524,1.364,1.3643,1.3646,1.3691,0,0,0,0,0,0,1.3452,1.346,1.3478,1.3485,1.3491,1.3541,1.3505,1.3503,1.3515,1.3511,1.3517,1.3517,1.3508,1.3545,1.355,1.3577,1.3525,1.3637,1.3641,1.3645,1.3687,1.3695,1.3702,0,0,0,0,0,1.3449,1.3488,1.3479,1.3486,1.3515,1.3543,1.3547,1.3537,1.3517,1.3536,1.3535,1.3516,1.3571,1.3549,1.3554,1.3582,1.3636,1.364,1.3644,1.3684,1.3694,1.3702,0,0,0,0,0,0,1.3482,1.3489,1.3479,1.3521,1.3532,1.3537,1.356,1.3547,1.3563,1.3558,1.3545,1.3547,1.3585,1.3587,1.3562,1.3631,1.36,1.3606,1.3628,1.3637,1.3645,1.3644,1.3527,0,0,0,0,0,1.3495,1.3518,1.3522,1.356,1.3566,1.3563,1.3574,1.3567,1.3577,1.358,1.3582,1.3592,1.3611,1.3624,1.3642,1.3687,1.3689,1.371,1.3717,1.3723,1.3729,1.3755,1.3765,1.3661,1.3661,1.3661,0,0,1.352,1.3527,1.3542,1.3567,1.3574,1.3599,1.3566,1.3593,1.3611,1.3584,1.3618,1.362,1.363,1.3671,1.3689,1.3674,1.3758,1.3729,1.3734,1.3736,1.3761,1.3771,1.378,1.3664,1.3663,1.3663,0,0,1.3579,1.3586,1.362,1.3629,1.3642,1.364,1.3648,1.3656,1.3657,1.3692,1.3673,1.3694,1.3727,1.3736,1.3744,1.3811,1.3795,1.3817,1.3856,1.3882,1.389,1.3897,1.3923,1.3932,1.3822,1.3822,1.3822,0,1.3609,1.3647,1.3638,1.3668,1.368,1.3659,1.3693,1.3702,1.3719,1.3727,1.371,1.3754,1.3758,1.3803,1.382,1.3827,1.3836,1.3816,1.389,1.3897,1.3904,1.3928,1.3937,1.3824,1.3824,1.3824,1.3824,0,1.3683,1.371,1.3735,1.3756,1.3771,1.3802,1.3798,1.3814,1.3806,1.3806,1.3842,1.3847,1.3867,1.3877,1.3868,1.3921,1.3911,1.3892,1.3861,1.3917,1.3939,1.3948,1.3828,1.3827,1.3827,1.3826,0,0,1.3762,1.3781,1.379,1.3801,1.3815,1.3835,1.3866,1.3887,1.3902,1.3915,1.3941,1.3971,1.3955,1.3965,1.3957,1.398,1.4035,1.3958,1.3958,1.3974,1.4096,1.4112,1.4123,1.4024,1.4026,1.4027,1.4096,0,1.3823,1.3879,1.3874,1.3927,1.3953,1.3935,1.3962,1.3974,1.3975,1.3996,1.3996,1.4019,1.3994,1.4001,1.4023,1.4024,1.406,1.4018,1.4049,1.405,1.4049,1.4134,1.415,1.4214,1.4105,1.4106,1.4107,0,1.3901,1.3921,1.3978,1.3992,1.4002,1.4027,1.4048,1.4068,1.4081,1.408,1.4094,1.4082,1.4113,1.4082,1.4125,1.4098,1.411,1.4112,1.4115,1.4118,1.4083,1.4141,1.4234,1.4245,1.4121,1.412,1.4119,0,1.3956,1.3996,1.4036,1.4045,1.4061,1.408,1.4087,1.4099,1.4113,1.4131,1.4141,1.4161,1.4172,1.4188,1.4183,1.416,1.4228,1.4195,1.4229,1.4229,1.4244,1.4243,1.4342,1.425,1.425,1.4249,1.4249,0,1.4026,1.4061,1.4062,1.4086,1.4126,1.412,1.4159,1.4164,1.4175,1.42,1.4184,1.4208,1.4199,1.4222,1.4217,1.4255,1.426,1.426,1.4259,1.4263,1.4263,1.4271,1.4267,1.4252,1.4251,1.4251,1.4251,0,1.4093,1.4095,1.4138,1.4151,1.4155,1.4184,1.4195,1.4218,1.422,1.4252,1.4258,1.426,1.4286,1.4283,1.4311,1.4308,1.4356,1.4348,1.4353,1.4351,1.4386,1.4383,1.4494,1.4509,1.4406,1.4407,1.4408,0,1.4138,1.4166,1.4184,1.4201,1.4211,1.4237,1.4253,1.4248,1.4265,1.4285,1.4306,1.4331,1.4352,1.4395,1.4397,1.442,1.4413,1.4451,1.4416,1.442,1.4416,1.4415,1.4419,1.4458,1.4459,1.446,1.4461,0,1.4218,1.4219,1.4243,1.4269,1.429,1.4309,1.4326,1.4341,1.4338,1.4358,1.4386,1.4402,1.4434,1.446,1.4481,1.4487,1.4474,1.4472,1.4481,1.4486,1.4488,1.4489,1.4373,1.4469,1.4468,1.4468,1.4467,1.4467,1.4276,1.4302,1.432,1.4348,1.4362,1.438,1.4404,1.441,1.4434,1.4461,1.4456,1.4489,1.4503,1.4531,1.454,1.4565,1.4551,1.4564,1.4567,1.4571,1.4577,1.4483,1.4568,1.4568,1.4568,1.4568,1.4568,0,1.4358,1.4369,1.4396,1.4424,1.4447,1.4434,1.4454,1.4474,1.4504,1.4519,1.4541,1.4575,1.4601,1.4607,1.4632,1.4651,1.4645,1.4658,1.4657,1.4659,1.4586,1.4577,1.4662,1.4662,1.4662,1.4662,1.4662,1.4662,1.4403,1.4446,1.4449,1.4499,1.451,1.4544,1.4557,1.4573,1.4586,1.4626,1.4649,1.4653,1.4665,1.4692,1.4715,1.4716,1.4727,1.4742,1.4741,1.4673,1.4663,1.4655,1.4646,1.4744,1.4744,1.4811,1.4812,1.4812]}]]